Date String (YYYY-MM-DD hh:mm:ss) UTC,Instrument flags,absolute air pressure of the measurement (hPa),sample flow rate (lpm),inlet stack bypass flow (lpm),air temperature of the measurement (°C),ambient temperature measured by the external sensor (°C),aerosol sample conditioner tube jacket temperature (°C),OPC LED temperature (°C),internal box temperature (°C),relative humidity of the measurement (%),span deviation,mass concentration of particles derived from Lorenz-Mie calculation of OPC scattering (μg/m³),mass concentration of particles derived from Lorenz-Mie calculation of OPC scattering (μg/m³),mass concentration of particles derived from Lorenz-Mie calculation of OPC scattering (μg/m³)
DateTimeUTC,F1_M11,P_M11,Q1_M11,Q2_M11,T1_M11,T2_M11,T3_M11,T4_M11,T5_M11,U1_M11,ZSPAN_M11,X0_M11,X2_M11,X1_M11
2024-01-09 00:00:00,SystemResetWarning,0823.7,5.00,000.00,020.7,020.1,000.0,029.0,022.0,6.5,0000.0,0002.05,0000.97,0000.65
2024-01-09 00:01:00,SystemResetWarning,0823.8,4.99,000.00,020.7,020.1,000.0,029.0,021.9,6.5,0000.0,0002.22,0001.00,0000.65
2024-01-09 00:02:00,SystemResetWarning,0823.7,4.99,000.00,020.7,020.0,000.0,029.0,021.8,6.5,0000.0,0002.08,0001.01,0000.64
2024-01-09 00:03:00,SystemResetWarning,0823.8,5.00,000.00,020.7,020.0,000.0,029.0,021.8,6.5,0000.0,0002.04,0001.00,0000.64
2024-01-09 00:04:00,SystemResetWarning,0823.8,5.02,000.00,020.7,019.9,000.0,029.0,021.7,6.5,0000.0,0002.13,0000.99,0000.62
2024-01-09 00:05:00,SystemResetWarning,0823.8,5.01,000.00,020.6,019.8,000.0,029.0,021.7,6.6,0000.0,0002.09,0000.95,0000.61
2024-01-09 00:06:00,SystemResetWarning,0823.8,4.99,000.00,020.6,019.8,000.0,029.0,021.7,6.6,0000.0,0002.26,0000.94,0000.60
2024-01-09 00:07:00,SystemResetWarning,0823.7,4.99,000.00,020.6,019.7,000.0,029.0,021.7,6.7,0000.0,0002.84,0000.94,0000.59
2024-01-09 00:08:00,SystemResetWarning,0823.8,5.00,000.00,020.6,019.7,000.0,029.0,021.6,6.8,0000.0,0002.76,0000.96,0000.60
2024-01-09 00:09:00,SystemResetWarning,0823.8,5.01,000.00,020.5,019.6,000.0,029.0,021.6,6.9,0000.0,0003.08,0000.97,0000.60
2024-01-09 00:10:00,SystemResetWarning,0823.8,5.00,000.00,020.5,019.6,000.0,028.9,021.7,7.0,0000.0,0004.57,0000.98,0000.60
2024-01-09 00:11:00,SystemResetWarning,0823.8,5.00,000.00,020.5,019.6,000.0,028.9,021.6,7.0,0000.0,0004.74,0000.98,0000.59
2024-01-09 00:12:00,SystemResetWarning,0823.9,5.00,000.00,020.5,019.5,000.0,028.9,021.6,7.1,0000.0,0005.13,0000.96,0000.59
2024-01-09 00:13:00,SystemResetWarning,0823.9,5.00,000.00,020.5,019.5,000.0,028.9,021.6,7.2,0000.0,0005.32,0000.98,0000.58
2024-01-09 00:14:00,SystemResetWarning,0824.0,5.00,000.00,020.5,019.6,000.0,028.9,021.6,7.3,0000.0,0005.58,0001.01,0000.59
2024-01-09 00:15:00,SystemResetWarning,0824.0,5.00,000.00,020.5,019.6,000.0,028.9,021.7,7.3,0000.0,0005.57,0001.03,0000.59
2024-01-09 00:16:00,SystemResetWarning,0824.0,5.00,000.00,020.5,019.6,000.0,028.9,021.7,7.4,0000.0,0005.48,0001.03,0000.58
2024-01-09 00:17:00,SystemResetWarning,0824.0,5.00,000.00,020.5,019.6,000.0,028.9,021.7,7.4,0000.0,0006.36,0001.05,0000.58
2024-01-09 00:18:00,SystemResetWarning,0824.0,5.00,000.00,020.5,019.6,000.0,028.9,021.7,7.4,0000.0,0006.10,0001.03,0000.58
2024-01-09 00:19:00,SystemResetWarning,0824.0,4.99,000.00,020.5,019.6,000.0,028.8,021.6,7.4,0000.0,0006.61,0001.04,0000.57
2024-01-09 00:20:00,SystemResetWarning,0824.0,5.00,000.00,020.5,019.6,000.0,028.8,021.6,7.5,0000.0,0006.97,0001.03,0000.57
2024-01-09 00:21:00,SystemResetWarning,0824.0,5.00,000.00,020.5,019.6,000.0,028.8,021.6,7.4,0000.0,0006.11,0001.01,0000.58
2024-01-09 00:22:00,SystemResetWarning,0824.0,5.00,000.00,020.5,019.6,000.0,028.8,021.6,7.4,0000.0,0005.48,0001.03,0000.59
2024-01-09 00:23:00,SystemResetWarning,0824.0,5.00,000.00,020.5,019.6,000.0,028.8,021.5,7.3,0000.0,0005.01,0001.04,0000.60
2024-01-09 00:24:00,SystemResetWarning,0824.0,5.00,000.00,020.4,019.6,000.0,028.8,021.5,7.2,0000.0,0006.32,0001.03,0000.62
2024-01-09 00:25:00,SystemResetWarning,0824.0,5.00,000.00,020.4,019.5,000.0,028.8,021.5,7.1,0000.0,0006.15,0001.06,0000.64
2024-01-09 00:26:00,SystemResetWarning,0824.0,5.00,000.00,020.4,019.5,000.0,028.8,021.5,7.1,0000.0,0006.04,0001.05,0000.66
2024-01-09 00:27:00,SystemResetWarning,0824.2,5.00,000.00,020.4,019.5,000.0,028.8,021.5,7.0,0000.0,0006.17,0001.08,0000.68
2024-01-09 00:28:00,SystemResetWarning,0824.1,5.00,000.00,020.4,019.5,000.0,028.8,021.5,6.9,0000.0,0005.55,0001.13,0000.71
2024-01-09 00:29:00,SystemResetWarning,0824.1,5.00,000.00,020.4,019.6,000.0,028.8,021.6,6.9,0000.0,0005.26,0001.20,0000.74
2024-01-09 00:30:00,SystemResetWarning,0824.1,5.00,000.00,020.4,019.6,000.0,028.8,021.6,6.9,0000.0,0004.66,0001.19,0000.77
2024-01-09 00:31:00,SystemResetWarning,0824.1,5.00,000.00,020.4,019.6,000.0,028.7,021.6,6.9,0000.0,0004.06,0001.22,0000.79
2024-01-09 00:32:00,SystemResetWarning,0824.2,5.00,000.00,020.4,019.6,000.0,028.7,021.6,6.9,0000.0,0003.91,0001.26,0000.82
2024-01-09 00:33:00,SystemResetWarning,0824.2,4.99,000.00,020.4,019.6,000.0,028.7,021.6,6.9,0000.0,0003.85,0001.28,0000.84
2024-01-09 00:34:00,SystemResetWarning,0824.3,4.99,000.00,020.4,019.7,000.0,028.7,021.6,6.8,0000.0,0003.94,0001.33,0000.86
2024-01-09 00:35:00,SystemResetWarning,0824.3,5.00,000.00,020.4,019.7,000.0,028.7,021.7,6.8,0000.0,0002.57,0001.37,0000.87
2024-01-09 00:36:00,SystemResetWarning,0824.3,5.00,000.00,020.4,019.7,000.0,028.7,021.7,6.8,0000.0,0002.59,0001.36,0000.87
2024-01-09 00:37:00,SystemResetWarning,0824.3,5.01,000.00,020.4,019.7,000.0,028.7,021.7,6.8,0000.0,0002.68,0001.39,0000.87
2024-01-09 00:38:00,SystemResetWarning,0824.4,5.00,000.00,020.4,019.7,000.0,028.7,021.7,6.8,0000.0,0002.68,0001.38,0000.86
2024-01-09 00:39:00,SystemResetWarning,0824.4,5.00,000.00,020.4,019.7,000.0,028.7,021.7,6.8,0000.0,0002.95,0001.32,0000.83
2024-01-09 00:40:00,SystemResetWarning,0824.4,5.00,000.00,020.4,019.7,000.0,028.7,021.7,6.7,0000.0,0003.51,0001.25,0000.80
2024-01-09 00:41:00,SystemResetWarning,0824.4,5.01,000.00,020.4,019.7,000.0,028.7,021.7,6.7,0000.0,0004.00,0001.25,0000.78
2024-01-09 00:42:00,SystemResetWarning,0824.4,4.99,000.00,020.4,019.8,000.0,028.7,021.7,6.7,0000.0,0003.98,0001.23,0000.76
2024-01-09 00:43:00,SystemResetWarning,0824.4,4.99,000.00,020.4,019.8,000.0,028.7,021.7,6.6,0000.0,0004.02,0001.23,0000.75
2024-01-09 00:44:00,SystemResetWarning,0824.3,4.99,000.00,020.4,019.8,000.0,028.7,021.7,6.6,0000.0,0004.07,0001.22,0000.73
2024-01-09 00:45:00,SystemResetWarning,0824.4,5.00,000.00,020.4,019.7,000.0,028.7,021.6,6.6,0000.0,0004.39,0001.21,0000.71
2024-01-09 00:46:00,SystemResetWarning,0824.4,5.00,000.00,020.4,019.7,000.0,028.7,021.5,6.6,0000.0,0004.32,0001.15,0000.68
2024-01-09 00:47:00,SystemResetWarning,0824.4,5.00,000.00,020.4,019.6,000.0,028.7,021.5,6.7,0000.0,0004.27,0001.13,0000.66
2024-01-09 00:48:00,SystemResetWarning,0824.4,5.01,000.00,020.4,019.6,000.0,028.7,021.4,6.7,0000.0,0004.21,0001.10,0000.66
2024-01-09 00:49:00,SystemResetWarning,0824.4,5.01,000.00,020.3,019.5,000.0,028.7,021.5,6.7,0000.0,0004.09,0001.08,0000.65
2024-01-09 00:50:00,SystemResetWarning,0824.4,5.00,000.00,020.3,019.5,000.0,028.7,021.5,6.8,0000.0,0003.76,0001.12,0000.64
2024-01-09 00:51:00,SystemResetWarning,0824.5,5.00,000.00,020.3,019.5,000.0,028.7,021.5,6.8,0000.0,0003.10,0001.16,0000.64
2024-01-09 00:52:00,SystemResetWarning,0824.4,5.00,000.00,020.3,019.5,000.0,028.7,021.4,6.8,0000.0,0002.58,0001.13,0000.64
2024-01-09 00:53:00,SystemResetWarning,0824.4,5.00,000.00,020.3,019.5,000.0,028.7,021.4,6.8,0000.0,0002.76,0001.18,0000.64
2024-01-09 00:54:00,SystemResetWarning,0824.5,4.99,000.00,020.3,019.5,000.0,028.7,021.4,6.8,0000.0,0002.71,0001.13,0000.62
2024-01-09 00:55:00,SystemResetWarning,0824.5,5.00,000.00,020.3,019.5,000.0,028.7,021.4,6.8,0000.0,0002.59,0001.10,0000.61
2024-01-09 00:56:00,SystemResetWarning,0824.5,5.00,000.00,020.3,019.5,000.0,028.7,021.5,6.8,0000.0,0002.29,0001.06,0000.61
2024-01-09 00:57:00,SystemResetWarning,0824.5,5.00,000.00,020.3,019.5,000.0,028.7,021.5,6.8,0000.0,0002.06,0001.02,0000.60
2024-01-09 00:58:00,SystemResetWarning,0824.5,5.01,000.00,020.3,019.5,000.0,028.7,021.5,6.8,0000.0,0003.50,0001.02,0000.60
2024-01-09 00:59:00,SystemResetWarning,0824.5,5.00,000.00,020.3,019.5,000.0,028.7,021.4,6.8,0000.0,0004.11,0001.04,0000.60
